Location: Rounton
(54.4000°N, 1.3500°W)
Time: 02:33:27
(UTC+01:00)

IRIDIUM 33 DEB - Pass Details

Date: 09 July 2022
Orbit: 708 x 709 km, 86.3° (Epoch: 10 August)

Event Time Altitude Azimuth Distance (km) Brightness Sun altitude
Rises 03:23:57 0° 357° (N) 3,120 ? -8.1°
Reaches altitude 10° 03:26:19 10° 2° (N) 2,197 ? -7.9°
Maximum altitude 03:31:07 55° 80° (E) 854 ? -7.5°
Drops below altitude 10° 03:35:53 10° 159° (SSE) 2,182 ? -7.1°
Sets 03:38:12 0° 164° (SSE) 3,097 ? -7.0°
